Location: Antioch Baptist Church
(32.6696°N, 85.7327°W)
Time: 21:15:27
(UTC+00:00)

Cosmos 1892 - Pass Details

Date: 14 July 2020
Orbit: 505 x 524 km, 82.5° (Epoch: 13 August)

Event Time Altitude Azimuth Distance (km) Brightness Sun altitude
Exits shadow 02:56:20 73° 55° (NE) 538 2.6 -21.9°
Drops below altitude 10° 02:59:54 10° 10° (N) 1,738 5.8 -22.4°
Sets 03:02:03 0° 9° (N) 2,632 6.9 -22.7°
